Location: Cheyres
(46.8153°N, 6.7877°E)
Time: 13:07:28
(UTC+00:00)

Cosmos 1271 Rocket - Pass Details

Date: 11 May 2021
Orbit: 497 x 545 km, 81.2° (Epoch: 19 June)

Event Time Altitude Azimuth Distance (km) Brightness Sun altitude
Exits shadow 21:53:52 20° 237° (WSW) 1,279 4.6 -21.6°
Maximum altitude 21:55:55 33° 288° (WNW) 933 4.3 -21.7°
Drops below altitude 10° 21:59:35 10° 353° (N) 1,826 6.5 -22.0°
Sets 22:01:56 0° 3° (N) 2,723 7.4 -22.1°
